Farmingdale, NY

1:33 AM EDT on September 30, 2016 (GMT -0400)
Republic

Weather History for KFRG - October, 2012

Change the Weather History Date:

Saturday, October 27, 2012

  Actual Average Record
Temperature  
Mean Temperature 60 °F -  
Max Temperature 64 °F 57 °F 69 °F (2007)
Min Temperature 57 °F 42 °F 33 °F (2006)
Degree Days  
Heating Degree Days 4    
Growing Degree Days 10 (Base 50)    
Moisture  
Dew Point 53 °F    
Average Humidity 76    
Maximum Humidity 87    
Minimum Humidity 63    
Precipitation  
Precipitation 0.00 in - - ()
Sea Level Pressure  
Sea Level Pressure 30.01 in    
Wind  
Wind Speed 5 mph (East)    
Max Wind Speed 9 mph    
Max Gust Speed -    
Visibility 10 miles    
Events      
Averages and records for this station are not official NWS values.
T = Trace of Precipitation, MM = Missing Value Source: NWS Daily Summary

Daily Weather History Graph

Daily Weather History Graph

Search for Another Location

Airport or City:

Trip Planner

Search our weather history database for the weather conditions in past years. The results will help you decide how hot, cold, wet, or windy it might be!

Date:

Astronomy

Oct. 27, 2012 Rise Set
Actual Time 7:18 AM EDT 5:55 PM EDT
Civil Twilight 6:50 AM EDT 6:23 PM EDT
Nautical Twilight 6:18 AM EDT 6:55 PM EDT
Astronomical Twilight 5:46 AM EDT 7:27 PM EDT
Moon 4:40 PM EDT (10/27) 5:10 AM EDT (10/27)
Length of Visible Light 11h 33m
Length of Day
10h 36m
Waxing Gibbous, 96% of the Moon is Illuminated
Oct 27
Waxing Gibbous
Oct 29
Full
Nov 6
Last Quarter
Nov 13
New
Nov 20
First Quarter

Hourly Weather History & Observations

Time (EDT) Temp. Dew Point Humidity Pressure Visibility Wind Dir Wind Speed Gust Speed Precip Events Conditions
12:53 AM 60.1 °F 54.0 °F 80% 30.11 in 10.0 mi East 3.5 mph - N/A   Overcast
1:53 AM 60.1 °F 55.0 °F 83% 30.09 in 10.0 mi Calm Calm - N/A   Overcast
2:53 AM 59.0 °F 55.0 °F 87% 30.07 in 10.0 mi NNE 3.5 mph - N/A   Overcast
3:53 AM 59.0 °F 54.0 °F 83% 30.05 in 10.0 mi NE 3.5 mph - N/A   Overcast
4:03 AM 59.0 °F 53.6 °F 82% 30.05 in 10.0 mi NE 4.6 mph - N/A   Overcast
4:53 AM 59.0 °F 54.0 °F 83% 30.04 in 10.0 mi NE 3.5 mph - N/A   Overcast
5:53 AM 59.0 °F 54.0 °F 83% 30.04 in 10.0 mi ENE 3.5 mph - N/A   Overcast
6:53 AM 59.0 °F 54.0 °F 83% 30.04 in 10.0 mi Calm Calm - N/A   Overcast
7:53 AM 57.9 °F 54.0 °F 87% 30.04 in 10.0 mi NE 3.5 mph - N/A   Overcast
8:53 AM 60.1 °F 55.0 °F 83% 30.04 in 10.0 mi East 4.6 mph - N/A   Overcast
9:53 AM 63.0 °F 54.0 °F 72% 30.03 in 10.0 mi East 8.1 mph - N/A   Scattered Clouds
10:53 AM 64.0 °F 51.1 °F 63% 30.03 in 10.0 mi ESE 9.2 mph - N/A   Mostly Cloudy
11:53 AM 64.0 °F 53.1 °F 67% 30.01 in 10.0 mi Variable 6.9 mph - N/A   Mostly Cloudy
12:07 PM 64.4 °F 53.6 °F 68% 30.01 in 10.0 mi ESE 8.1 mph - N/A   Scattered Clouds
12:16 PM 64.4 °F 53.6 °F 68% 30.01 in 10.0 mi SE 8.1 mph - N/A   Scattered Clouds
12:34 PM 64.4 °F 53.6 °F 68% 30.00 in 10.0 mi SE 8.1 mph - N/A   Mostly Cloudy
12:53 PM 64.0 °F 54.0 °F 70% 30.00 in 10.0 mi SSE 9.2 mph - N/A   Mostly Cloudy
1:31 PM 64.4 °F 53.6 °F 68% 29.99 in 10.0 mi SE 6.9 mph - N/A   Scattered Clouds
1:53 PM 63.0 °F 53.1 °F 70% 29.98 in 10.0 mi SE 8.1 mph - N/A   Clear
2:53 PM 62.1 °F 52.0 °F 70% 29.97 in 10.0 mi SE 8.1 mph - N/A   Clear
3:53 PM 62.1 °F 53.1 °F 72% 29.96 in 10.0 mi ESE 6.9 mph - N/A   Clear
4:53 PM 61.0 °F 52.0 °F 72% 29.96 in 10.0 mi East 3.5 mph - N/A   Clear
6:53 PM 59.0 °F 52.0 °F 78% 29.96 in 10.0 mi ENE 4.6 mph - N/A   Clear
7:53 PM 57.9 °F 50.0 °F 75% 29.95 in 10.0 mi ENE 4.6 mph - N/A   Clear
8:53 PM 57.0 °F 48.0 °F 72% 29.94 in 10.0 mi NE 8.1 mph - N/A   Clear
9:53 PM 57.0 °F 48.0 °F 72% 29.94 in 10.0 mi NE 3.5 mph - N/A   Clear
10:53 PM 57.0 °F 51.1 °F 81% 29.92 in 10.0 mi NE 5.8 mph - N/A   Clear
11:53 PM 57.9 °F 50.0 °F 75% 29.91 in 10.0 mi NNE 8.1 mph - N/A   Clear